Flag for Gambia Weather past 2 weeks in Banjul, Gambia

Now
84 °F

Scattered clouds.


Feels Like: 91 °F
Forecast: N/A
Wind: 12 mph from West

Location: Banjul / Yundum

Current Time: Aug 30, 2014 at 7:21:46 PM

Latest Report: Aug 30, 2014 at 7:00 PM


Visibility: N/A

Pressure: 29.86 "Hg

Humidity: 70%

Dew point: 73 °F

Location of BanjulLocation

Historic Weather in Banjul — Graph

°F

Banjul temperature yesterday

Maximum temperature yesterday: 86 °F (at 11:00 AM)
Minimum temperature yesterday: 77 °F (at 7:00 AM)
Average temperature yesterday: 81 °F

Past Weeks' High & Low Weather Summary

 TemperatureHumidityPressure
High90 °F (Aug 27, 3:00 PM)100% (Aug 15, 10:00 PM)29.98 "Hg (Aug 15, 10:00 PM)
Low72 °F (Aug 27, 8:00 PM)26% (Aug 21, 9:00 AM)29.77 "Hg (Aug 17, 5:00 PM)
Average80 °F88%29.88 "Hg
* Reported Aug 15 5:00 PM — Aug 30 5:00 PM, Banjul, Weather by CustomWeather, © 2014

Note: Actual official high and low records may vary slightly from our data, if they occured in-between our weather recording intervals... More about our weather records

Advertising

Banjul weather history for previous 24 hours

 ConditionsComfort  
Time TempWeatherWind HumidityBarometerVisibility
5:00 PM
Aug 30
88 °FScattered clouds.9 mph70%29.86 "HgN/A
4:00 PM88 °FScattered clouds.5 mph70%29.89 "HgN/A
3:00 PM90 °FPartly sunny.12 mph67%29.89 "HgN/A
2:00 PM88 °FPartly sunny.No wind70%29.92 "HgN/A
1:00 PM86 °FScattered clouds.9 mph75%29.92 "HgN/A
12:00 PM86 °FScattered clouds.No wind75%29.92 "HgN/A
11:00 AM84 °FScattered clouds.5 mph79%29.92 "HgN/A
10:00 AM84 °FScattered clouds.7 mph79%29.92 "HgN/A
9:00 AM79 °FScattered clouds.No wind94%29.92 "HgN/A
8:00 AM77 °FScattered clouds.6 mph94%29.89 "HgN/A
7:00 AM75 °FScattered clouds.No wind100%29.89 "HgN/A
6:00 AM75 °FPassing clouds.No wind100%29.89 "HgN/A
5:00 AM77 °FPassing clouds.2 mph94%29.86 "HgN/A
4:00 AM77 °FPassing clouds.5 mph94%29.89 "HgN/A
3:00 AM77 °FPassing clouds.5 mph94%29.89 "HgN/A
2:00 AM77 °FPassing clouds.5 mph94%29.89 "HgN/A
1:00 AM77 °FPassing clouds.No wind94%29.89 "HgN/A
12:00 AM77 °FPassing clouds.5 mph94%29.92 "HgN/A
11:00 PM
Aug 29
79 °FPassing clouds.No wind89%29.92 "HgN/A
10:00 PM79 °FPassing clouds.7 mph94%29.89 "HgN/A
9:00 PM79 °FPassing clouds.7 mph94%29.89 "HgN/A
7:00 PM82 °FPassing clouds.6 mph84%29.86 "HgN/A
Weather by CustomWeather, © 2014

See weather overviewHow to use our weather pages